Location: Cr�marest
(50.6997°N, 1.7849°E)
Time: 15:10:19
(UTC+00:00)

Daily predictions for brighter satellites

Satellite Brightness Start Highest point End
(mag) Time Altitude Azimuth Time Altitude Azimuth Time Altitude Azimuth
Cosmos 2279 Rocket 4.3 19:28:13 10° SSE 19:34:02 45° E 19:39:55 10° NNE
Cosmos 1980 3.8 19:31:45 10° NNW 19:37:28 74° ENE 19:43:10 10° SE
SL-16 R/B 3.2 19:32:44 10° NNW 19:37:54 34° NE 19:43:01 10° ESE
Cosmos 2026 Rocket 4.0 19:31:56 10° N 19:38:03 88° W 19:44:12 10° S
MOS 1 4.3 19:33:52 10° SSE 19:39:29 74° ENE 19:45:09 10° NNW
USA 102 3.6 19:37:38 10° NE 19:39:31 22° N 20:26:16 10° NNW
SME Rocket 3.5 19:35:44 10° NNE 19:39:38 75° WNW 19:44:38 10° SSW
Cosmos 2151 3.8 19:35:46 10° N 19:39:42 33° ENE 19:43:37 10° SE
Cosmos-2242 4.4 19:37:05 10° SE 19:40:13 20° E 19:43:21 10° NE
USA 215 3.7 19:35:37 10° E 19:42:03 62° NNE 19:48:30 10° WNW
SPOT 3 Rocket 4.0 19:41:30 10° SE 19:46:25 45° ENE 19:51:20 10° N
Cosmos 1455 2.6 19:44:07 10° SSW 19:47:50 65° WNW 19:51:34 10° N
Meteor 2-10 Rocket 4.5 19:43:23 10° SSW 19:48:38 56° WNW 19:54:08 10° N
COSMOS 2455 4.1 19:44:58 10° SE 19:48:52 18° ESE 19:52:48 10° ENE
ATLAS 5 CENTAUR R/B 4.1 19:47:25 10° WNW 19:50:55 22° NNW 19:54:52 10° NE
SL-4 R/B 3.3 19:47:31 10° SSW 19:51:03 24° SE 19:54:47 10° E
IRS-1A Rocket 4.4 19:46:12 10° SSE 19:51:50 90° ENE 19:57:37 10° NNW
Cosmos 2219 Rocket 3.7 19:46:49 10° NW 19:51:55 35° WSW 19:57:00 10° S
USA 186 3.4 19:51:41 10° SSW 19:54:41 34° W 19:57:34 10° NNW
Cosmos 1076 Rocket 3.5 19:51:41 10° N 19:56:04 82° E 20:00:22 10° SSE
COSMOS 2428 4.1 19:50:58 10° NW 19:56:14 38° WSW 20:01:29 10° S
Cosmos 2266 Rocket 4.4 19:50:16 10° N 19:56:25 47° ENE 20:02:26 10° SE
ATLAS 5 CENTAUR R/B 3.3 19:57:07 10° W 19:58:07 13° SW 19:59:15 10° SSW
IGS 5A 3.9 19:54:25 10° SE 19:58:21 44° ENE 20:02:19 10° N
OBJECT-B 1.9 19:56:16 10° S 19:59:23 45° W 20:02:32 10° NNW
Landsat 7 4.3 19:55:17 10° SE 19:59:48 45° ENE 20:04:21 10° N
Meteor 2-1 Rocket 4.4 19:56:10 10° SSW 20:02:03 86° WNW 20:08:03 10° NNE
Cosmos 2292 Rocket 4.3 19:55:49 10° N 20:02:35 82° E 20:07:34 10° SSE
Cosmos 44 3.9 19:58:26 10° SW 20:03:37 70° NW 20:09:03 10° NE
Cosmos 1356 4.0 20:00:36 10° NNW 20:03:59 58° W 20:07:20 10° S
Cosmos 1634 Rocket 4.2 19:57:52 10° SSW 20:04:07 76° W 20:10:23 10° N
Cosmos 2344 3.6 19:58:27 10° SW 20:05:53 85° SE 20:14:02 10° NE
ARIANE 5 R/B 3.8 20:04:04 13° ESE 20:07:11 27° ENE 20:10:53 10° N
Cosmos 407 Rocket 3.6 20:02:35 10° S 20:07:32 51° ESE 20:12:34 10° NNE
USA 245 4.1 20:05:59 15° ESE 20:08:00 24° ENE 20:10:28 10° NNE
Orbus 7S? 3.4 20:08:43 10° WSW 20:11:42 85° NNW 20:17:38 10° ENE
IRIDIUM 104 4.3 20:06:41 10° S 20:11:53 72° E 20:17:06 10° N
Meteor 2-3 Rocket 3.9 20:06:46 10° N 20:12:31 61° ENE 20:17:47 12° SSE
MetOp-B 4.3 20:09:16 12° SE 20:14:13 59° ENE 20:19:30 10° N
RESURS DK-1 3.8 20:10:53 10° WSW 20:14:49 41° NW 20:18:47 10° NNE
Cosmos 405 Rocket 3.8 20:12:15 10° NNW 20:16:06 46° W 20:19:51 10° S
Cosmos 44 Rocket 4.5 20:15:04 10° SSE 20:19:01 23° ESE 20:23:04 10° ENE
Cosmos 1140 Rocket 3.5 20:15:46 10° S 20:20:47 58° ESE 20:25:50 10° NNE
IRIDIUM 114 4.3 20:15:48 10° S 20:21:01 85° E 20:26:17 10° N
Cosmos 1812 Rocket 3.5 20:18:20 10° S 20:22:47 85° E 20:27:17 10° NNE
CZ-2C R/B 4.1 20:19:45 10° NNE 20:23:58 41° E 20:27:43 12° SSE
Cosmos 2237 Rocket 2.7 20:19:43 10° NW 20:25:14 57° WSW 20:30:43 10° S
Meteor 2-21 4.5 20:21:25 10° N 20:27:31 86° W 20:33:36 10° S
Timation 2 Rocket 4.1 20:21:20 10° S 20:27:42 56° ESE 20:33:49 10° NE
Abrixas rocket 2.5 20:27:37 10° WSW 20:28:20 19° SW 20:28:20 19° SW
IRIDIUM 103 4.4 20:24:58 10° S 20:30:10 82° W 20:35:26 10° N
Cosmos 2180 Rocket 4.4 20:24:18 10° S 20:30:28 87° E 20:36:39 10° N
Cosmos 1818 4.3 20:25:07 10° WSW 20:30:29 58° NW 20:35:55 10° NE
Cosmos 1766 Rocket 3.9 20:29:37 10° N 20:33:51 49° ENE 20:36:22 22° SE
Cosmos 2263 Rocket 4.0 20:34:38 12° E 20:34:38 12° E 20:36:18 10° ENE
BREEZE M DEB (TANK) 2.8 20:26:28 10° WSW 20:34:31 58° SSE 20:36:34 20° E
Spot 2 Rocket 3.8 20:32:07 19° SE 20:35:35 54° ENE 20:40:32 10° N
CARTOSAT-1 4.2 20:33:27 22° SE 20:35:50 41° ENE 20:39:55 10° N
Cosmos 1633 3.2 20:36:41 10° NNW 20:40:12 52° W 20:43:20 12° S
Cosmos 482 Debris 2.9 20:38:12 10° WNW 20:40:23 57° N 20:40:38 50° NE
Cosmos 909 Rocket 4.5 20:34:17 10° SW 20:40:32 68° NW 20:47:11 10° NE
FALCON 9 DEB 3.2 20:38:07 10° SW 20:41:01 40° SSE 20:41:37 35° ESE
Cosmos 2227 Rocket 2.1 20:36:48 10° SSW 20:42:25 69° ESE 20:48:03 10° NNE
Cosmos 2082 4.1 20:37:32 10° S 20:42:41 39° ESE 20:47:53 10° NE
Okean 3 Rocket 3.7 20:38:32 10° N 20:43:03 61° ENE 20:45:39 24° SSE
Cosmos 1655 Rocket 4.2 20:38:24 10° NNW 20:44:42 76° W 20:50:54 10° S
FALCON 9 DEB 2.9 20:42:39 10° SW 20:45:36 49° SSE 20:46:28 36° E
Lacrosse 5 rocket 2.6 20:42:11 10° WNW 20:46:10 39° NNE 20:49:59 12° E
CZ-4C R/B 4.4 20:42:50 10° WNW 20:47:47 28° N 20:53:37 10° NE
Cosmos 468 Rocket 4.2 20:43:53 10° NNW 20:48:58 57° ENE 20:51:46 26° SE
Cosmos 2297 Rocket 2.2 20:43:24 10° SSW 20:49:04 88° WNW 20:54:47 10° NNE
Cosmos 1869 3.5 20:47:58 26° SSE 20:49:52 50° E 20:53:42 10° NNE
Genesis I 4.4 20:46:32 10° NW 20:50:14 36° WSW 20:52:33 19° S
Resurs 01 Rocket 2.4 20:46:10 11° S 20:50:21 50° W 20:54:43 10° NNW
NOSS 3-1 (A) 4.4 20:44:21 10° NW 20:51:17 54° NE 20:57:36 17° ESE
Meteor 1-4 Rocket 2.8 20:50:30 34° SE 20:51:28 45° E 20:54:53 10° NNE
ATLAS 2AS CENTAUR R/B 4.2 20:44:32 10° W 20:52:04 45° NNW 20:59:19 10° NE
FALCON 9 DEB 2.7 20:54:38 10° SW 20:57:38 62° SSE 20:58:12 49° ESE
Cosmos 2219 3.2 20:52:42 10° SSW 20:58:20 83° WNW 21:04:00 10° NNE
Cosmos 2084 Rocket 3.1 20:57:21 10° SW 21:01:20 84° SE 21:05:26 10° NE
Cosmos 1763 Rocket 3.5 20:56:46 10° NNW 21:01:51 68° ENE 21:04:17 30° SE
Cosmos 1190 Rocket 4.2 21:00:03 10° SSW 21:05:16 75° WNW 21:10:30 10° NNE
FALCON 9 DEB 3.6 21:02:11 10° W 21:05:36 58° N 21:07:40 21° ENE
Terra 2.3 21:03:52 30° ESE 21:05:46 45° ENE 21:10:20 10° N
Meteor 2-8 Rocket 4.4 21:02:56 16° S 21:07:57 74° E 21:14:05 10° NNE
BREEZE-M DEB (TANK) 3.4 21:07:21 10° W 21:08:46 22° SW 21:08:46 22° SW
Cosmos 540 Rocket 4.0 21:04:36 10° NNW 21:09:33 46° ENE 21:11:41 30° ESE
Cosmos 921 Rocket 4.2 21:07:04 10° N 21:11:00 30° ENE 21:12:20 25° E
NOSS 3-1 (C) 4.0 21:08:02 10° NW 21:15:19 84° NE 21:20:23 27° SE
SPOT 5 2.8 21:14:08 35° SSE 21:16:02 75° ENE 21:20:55 10° NNW
Cosmos-2242 3.9 21:13:14 10° SSW 21:17:26 48° WNW 21:21:37 10° N
SPOT 1/Viking Rocket 4.0 21:14:16 20° S 21:17:48 58° W 21:22:58 10° NNW
Meteor 2-2 Rocket 4.5 21:15:41 31° SSE 21:18:08 50° E 21:23:36 10° NNE
FALCON 9 DEB 3.2 21:16:28 10° WSW 21:18:54 52° SW 21:18:54 52° SW
Cosmos 1842 Rocket 3.9 21:20:26 41° SE 21:21:19 48° E 21:25:38 10° NNE
SL-16 R/B 2.6 21:16:45 10° NW 21:22:20 56° WSW 21:25:19 27° S
Cosmos 676 Rocket 4.0 21:18:28 10° SSW 21:23:40 83° WNW 21:28:54 10° NNE
USA 215 3.3 21:21:35 30° SE 21:25:03 70° SW 21:31:37 10° WNW
SL-08 ROCKET BODY 4.5 21:23:11 10° N 21:29:13 62° ENE 21:31:37 36° SE
SL-4 R/B 2.1 21:25:45 10° WSW 21:30:13 72° SSE 21:33:32 19° ENE
Cosmos 1408 Rocket 3.5 21:29:16 10° NNW 21:33:37 81° W 21:34:51 46° S
COSMOS 2455 2.7 21:27:56 10° SSW 21:33:58 85° SE 21:40:02 10° NE
ERS-1 Rocket 3.0 21:33:52 36° S 21:35:58 74° WSW 21:41:01 10° NNW
ATLAS 5 CENTAUR R/B 4.2 21:33:33 10° NW 21:37:13 21° N 21:41:20 10° ENE
Cosmos 1862 3.2 21:36:55 10° NNW 21:40:53 81° W 21:41:30 62° S
Sich 1 4.0 21:37:20 10° N 21:41:10 31° ENE 21:41:28 30° E
Cosmos 1805 Rocket 4.2 21:37:27 10° N 21:41:33 39° ENE 21:41:58 38° E
Cosmos 2221 2.3 21:41:54 58° SSE 21:42:39 77° E 21:46:57 10° NNE
ARIANE 5 R/B 3.6 21:41:36 26° SSW 21:43:30 40° W 21:47:39 10° NNW
Meteor 2-15 Rocket 4.3 21:43:55 32° S 21:46:54 83° E 21:53:00 10° NNE
Cosmos 1943 3.2 21:42:40 10° NNW 21:48:19 69° ENE 21:50:06 43° SE
Timation 1 Rocket 4.5 21:42:55 10° SW 21:48:54 75° WNW 21:54:55 10° NNE
Cosmos 1745 Rocket 4.1 21:45:01 10° N 21:51:18 65° ENE 21:53:25 42° SE
Cosmos 1570 Rocket 4.1 21:46:37 10° NNW 21:51:55 66° ENE 21:53:15 48° ESE
Cosmos 1743 Rocket 3.4 21:48:07 10° N 21:52:28 86° ENE 21:53:02 67° SSE
SeaSat 1 4.0 21:48:48 10° NE 21:51:19 20° E 21:51:19 20° E
NOSS 2-1 (C) 3.8 21:56:12 41° NE 21:56:12 41° NE 21:58:41 10° NE
Cosmos 44 Rocket 3.6 21:55:00 10° SW 22:00:06 73° NW 22:05:21 10° NE
NOSS 2-1 (D) 3.6 22:02:34 47° NNE 22:02:34 47° NNE 22:05:17 10° NE
Cosmos 1633 Rocket 4.4 21:58:21 10° N 22:02:05 27° ENE 22:02:12 27° ENE
TSX-5 4.1 22:01:04 26° SW 22:03:37 70° NW 22:07:26 10° NNE
Cosmos 1606 3.1 22:06:56 54° NE 22:06:56 54° NE 22:10:01 10° NNE
BREEZE-M DEB (TANK) 3.8 21:59:21 10° WNW 22:06:19 40° SW 22:06:19 40° SW
Cosmos 1741 Rocket 3.9 22:05:12 43° SSW 22:07:01 89° ESE 22:12:21 10° NNE
S3M 4.1 22:05:25 45° SSE 22:07:18 65° E 22:13:39 10° NNE
Cosmos 1850 Rocket 3.9 22:08:07 40° SSW 22:10:02 84° WNW 22:15:20 10° NNE
Cosmos 1500 Rocket 3.7 22:06:04 10° NNW 22:10:31 64° W 22:11:06 57° SW
Cosmos 1666 Rocket 4.3 22:08:42 10° N 22:12:57 40° ENE 22:12:59 40° ENE
Cosmos 2263 Rocket 2.0 22:16:15 58° SSE 22:17:11 69° ESE 22:22:45 10° NNE
Aureole 1 Rocket 3.3 22:17:34 48° SSW 22:19:06 87° WNW 22:23:33 10° NNE
H-2A R/B 4.0 22:16:11 10° N 22:20:19 55° WNW 22:21:10 46° WSW
Cosmos 1386 Rocket 4.3 22:14:39 10° N 22:20:44 84° W 22:22:22 51° S
USA 229 DEB 4.0 22:17:24 10° NW 22:24:36 66° SW 22:27:01 45° S
USA 229 4.0 22:17:30 10° NW 22:24:42 66° SW 22:27:07 45° S
Lacrosse 5 rocket 1.4 22:21:22 10° WNW 22:25:34 84° NW 22:25:34 84° NW
Cosmos 2227 Rocket 4.1 22:22:06 10° WSW 22:26:58 29° NW 22:31:53 10° NNE
Cosmos 1782 4.5 22:28:48 24° ENE 22:28:48 24° ENE 22:31:07 10° NNE
Cosmos 1844 Rocket 4.2 22:30:56 20° E 22:30:56 20° E 22:33:57 10° NE
Cosmos 2208 Rocket 4.0 22:26:43 10° NNW 22:32:05 77° WSW 22:32:47 65° S
SL-24 DEB 4.3 22:32:21 61° E 22:32:21 61° E 22:36:54 10° N
Cosmos 1151 Rocket 4.2 22:34:17 32° ENE 22:34:17 32° ENE 22:37:22 10° NNE
ALOS 2 3.4 22:35:37 40° ENE 22:35:37 40° ENE 22:39:43 10° N
Cosmos 1553 Rocket 4.3 22:33:03 34° SW 22:35:39 60° WNW 22:41:43 10° N
Cosmos 841 Rocket 4.1 22:30:44 10° NW 22:35:40 44° WSW 22:36:20 42° SW
Cosmos 1603 4.0 22:31:26 10° NW 22:37:01 55° WSW 22:37:52 50° SW
CZ-4C R/B 4.3 22:32:37 10° NW 22:38:15 31° NNE 22:44:51 10° ENE
NOSS 3-1 (A) 4.2 22:35:15 10° NW 22:42:33 59° SW 22:45:03 44° S
Terra 3.3 22:42:44 25° WSW 22:43:43 27° W 22:47:46 10° NW
Cosmos 1933 3.9 22:45:09 55° NNE 22:45:09 55° NNE 22:48:25 10° NNE
Cosmos 921 Rocket 4.1 22:45:19 10° NW 22:49:08 35° W 22:49:08 35° W
Cosmos 1602 4.5 22:47:05 10° N 22:50:00 50° N 22:50:00 50° N
Meteor 2-17 Rocket 4.4 22:48:14 10° NNW 22:54:24 78° W 22:55:34 60° SSW
Meteor 1-14 Rocket 4.3 22:57:45 10° N 23:03:46 73° ENE 23:04:37 63° SE
Cosmos 1437 Rocket 3.8 23:05:15 43° NW 23:05:15 43° NW 23:08:14 10° N
SL-4 R/B 2.7 23:05:21 10° W 23:09:09 59° WNW 23:09:09 59° WNW
NOSS 2-2 (C) 4.2 23:08:17 10° NW 23:13:25 85° NE 23:14:35 61° SE
Cosmos 2184 Rocket 4.2 23:07:33 10° N 23:13:51 62° ENE 23:14:58 53° ESE
NOSS 2-2 (E) 4.3 23:09:20 10° NW 23:14:37 84° SW 23:15:39 65° SSE
Cosmos 2315 Rocket 4.0 23:16:01 57° SSW 23:17:21 77° W 23:23:46 10° N
Sich 1 4.4 23:15:03 10° NNW 23:18:26 30° W 23:18:26 30° W
Cosmos 1515 Rocket 4.4 23:19:41 43° ENE 23:19:41 43° ENE 23:23:09 10° NNE
Cosmos 1666 4.1 23:17:24 10° N 23:20:00 35° NNE 23:20:00 35° NNE
ATLAS 5 CENTAUR R/B 3.3 23:18:11 10° NW 23:23:06 41° NNE 23:27:06 18° E
SeaSat 1 2.6 23:25:42 10° NNE 23:30:37 67° NW 23:31:05 63° W
Cosmos 1470 Rocket 4.0 23:28:32 10° NNW 23:32:15 59° NW 23:32:15 59° NW
Iridium 4 Rocket 3.7 23:38:02 61° W 23:38:12 61° W 23:43:37 10° N
Nimbus 7 Rocket 4.2 23:33:31 10° NNE 23:39:25 75° ESE 23:39:53 70° SE
Cosmos 1633 Rocket 4.2 23:35:57 10° NNW 23:39:17 34° WNW 23:39:17 34° WNW
Cosmos 2074 Rocket 3.8 23:34:01 10° N 23:40:20 88° W 23:41:12 69° S
Cosmos 1844 3.8 23:41:40 59° ESE 23:41:40 59° ESE 23:47:09 10° NE
COSMOS 2406 4.3 23:37:07 10° NNW 23:42:25 38° NE 23:44:55 26° E
Cosmos 1503 Rocket 4.2 23:44:44 58° E 23:44:44 58° E 23:49:24 10° NNE
USA 281 3.4 23:43:08 43° ESE 23:45:20 66° ENE 23:51:52 10° NNW
Cosmos 1812 3.9 23:48:00 41° N 23:48:00 41° N 23:50:38 10° N
Cosmos 1933 Rocket 4.1 23:44:46 10° NNW 23:48:19 56° NNW 23:48:19 56° NNW
